Time,TemperatureF,DewpointF,PressureIn,WindDirection,WindDirectionDegrees,WindSpeedMPH,WindSpeedGustMPH,Humidity,HourlyPrecipIn,Conditions,Clouds,dailyrainin,SoftwareType,DateUTC
2013-01-04 00:00:00,27.7,23.5,30.13,SSW,211,0.0,0.0,84,0.00,,,0.00,Wunderground v.1.15,2013-01-04 05:00:00,
2013-01-04 00:03:00,27.6,23.4,30.13,SSW,211,0.0,0.0,84,0.00,,,0.00,Wunderground v.1.15,2013-01-04 05:03:00,
2013-01-04 00:08:00,27.6,23.4,30.13,WSW,244,0.0,4.0,84,0.00,,,0.00,Wunderground v.1.15,2013-01-04 05:08:00,
2013-01-04 00:13:00,27.6,23.4,30.13,West,279,0.0,5.0,84,0.00,,,0.00,Wunderground v.1.15,2013-01-04 05:13:00,
2013-01-04 00:18:00,27.6,23.4,30.13,SSW,205,1.0,5.0,84,0.00,,,0.00,Wunderground v.1.15,2013-01-04 05:18:00,
2013-01-04 00:23:00,27.6,23.4,30.13,WSW,257,0.0,3.0,84,0.00,,,0.00,Wunderground v.1.15,2013-01-04 05:23:00,
2013-01-04 00:28:00,27.4,23.2,30.13,WSW,238,0.0,3.0,84,0.00,,,0.00,Wunderground v.1.15,2013-01-04 05:28:00,
2013-01-04 00:33:00,27.2,23.0,30.13,WSW,238,0.0,2.0,84,0.00,,,0.00,Wunderground v.1.15,2013-01-04 05:33:00,
2013-01-04 00:38:00,27.1,22.9,30.13,WSW,254,2.0,5.0,84,0.00,,,0.00,Wunderground v.1.15,2013-01-04 05:38:00,
2013-01-04 00:43:00,27.1,22.9,30.13,WSW,254,0.0,2.0,84,0.00,,,0.00,Wunderground v.1.15,2013-01-04 05:43:00,
2013-01-04 00:48:00,27.1,23.2,30.13,West,263,0.0,5.0,85,0.00,,,0.00,Wunderground v.1.15,2013-01-04 05:48:00,
2013-01-04 00:53:00,27.2,23.3,30.13,WSW,241,1.0,3.0,85,0.00,,,0.00,Wunderground v.1.15,2013-01-04 05:53:00,
2013-01-04 00:58:00,27.4,23.5,30.13,WSW,247,1.0,3.0,85,0.00,,,0.00,Wunderground v.1.15,2013-01-04 05:58:00,
2013-01-04 01:03:00,27.5,23.6,30.13,WSW,238,0.0,4.0,85,0.00,,,0.00,Wunderground v.1.15,2013-01-04 06:03:00,
2013-01-04 01:08:00,27.7,23.5,30.12,WSW,252,0.0,5.0,84,0.00,,,0.00,Wunderground v.1.15,2013-01-04 06:08:00,
2013-01-04 01:13:00,27.7,23.5,30.12,WSW,252,0.0,4.0,84,0.00,,,0.00,Wunderground v.1.15,2013-01-04 06:13:00,
2013-01-04 01:18:00,27.7,23.5,30.12,South,171,0.0,4.0,84,0.00,,,0.00,Wunderground v.1.15,2013-01-04 06:18:00,
2013-01-04 01:24:00,27.7,23.5,30.12,South,190,2.0,3.0,84,0.00,,,0.00,Wunderground v.1.15,2013-01-04 06:24:00,
2013-01-04 01:29:00,27.6,23.4,30.12,NW,324,0.0,5.0,84,0.00,,,0.00,Wunderground v.1.15,2013-01-04 06:29:00,
2013-01-04 01:34:00,27.6,23.4,30.12,NW,324,0.0,2.0,84,0.00,,,0.00,Wunderground v.1.15,2013-01-04 06:34:00,
2013-01-04 01:39:00,27.5,23.3,30.12,West,265,0.0,3.0,84,0.00,,,0.00,Wunderground v.1.15,2013-01-04 06:39:00,
2013-01-04 01:44:00,27.6,23.4,30.12,SW,224,1.0,5.0,84,0.00,,,0.00,Wunderground v.1.15,2013-01-04 06:44:00,
2013-01-04 01:49:00,27.6,23.4,30.12,SW,224,0.0,5.0,84,0.00,,,0.00,Wunderground v.1.15,2013-01-04 06:49:00,
2013-01-04 01:54:00,27.6,23.4,30.12,WSW,244,1.0,5.0,84,0.00,,,0.00,Wunderground v.1.15,2013-01-04 06:54:00,
2013-01-04 01:59:00,27.6,23.4,30.12,WSW,257,0.0,7.0,84,0.00,,,0.00,Wunderground v.1.15,2013-01-04 06:59:00,
2013-01-04 02:04:00,27.6,23.4,30.12,WSW,256,5.0,5.0,84,0.00,,,0.00,Wunderground v.1.15,2013-01-04 07:04:00,
2013-01-04 02:09:00,27.7,23.5,30.11,West,266,0.0,5.0,84,0.00,,,0.00,Wunderground v.1.15,2013-01-04 07:09:00,
2013-01-04 02:14:00,27.8,23.3,30.11,SW,232,0.0,4.0,83,0.00,,,0.00,Wunderground v.1.15,2013-01-04 07:14:00,
2013-01-04 02:19:00,27.8,23.3,30.11,WSW,245,0.0,4.0,83,0.00,,,0.00,Wunderground v.1.15,2013-01-04 07:19:00,
2013-01-04 02:24:00,27.8,23.3,30.11,SW,224,3.0,7.0,83,0.00,,,0.00,Wunderground v.1.15,2013-01-04 07:24:00,
2013-01-04 02:29:00,27.8,23.3,30.11,SW,230,1.0,7.0,83,0.00,,,0.00,Wunderground v.1.15,2013-01-04 07:29:00,
2013-01-04 02:34:00,27.8,23.3,30.11,WSW,250,0.0,4.0,83,0.00,,,0.00,Wunderground v.1.15,2013-01-04 07:34:00,
2013-01-04 02:39:00,27.8,23.3,30.11,WSW,244,0.0,4.0,83,0.00,,,0.00,Wunderground v.1.15,2013-01-04 07:39:00,
2013-01-04 02:44:00,27.7,23.2,30.11,SSW,204,0.0,4.0,83,0.00,,,0.00,Wunderground v.1.15,2013-01-04 07:44:00,
2013-01-04 02:49:00,27.7,23.2,30.11,WNW,297,5.0,5.0,83,0.00,,,0.00,Wunderground v.1.15,2013-01-04 07:49:00,
2013-01-04 02:54:00,27.7,23.2,30.11,SSE,155,3.0,9.0,83,0.00,,,0.00,Wunderground v.1.15,2013-01-04 07:54:00,
2013-01-04 02:59:00,27.8,23.0,30.11,West,273,3.0,9.0,82,0.00,,,0.00,Wunderground v.1.15,2013-01-04 07:59:00,
2013-01-04 03:04:00,27.8,23.0,30.11,SSW,208,1.0,4.0,82,0.00,,,0.00,Wunderground v.1.15,2013-01-04 08:04:00,
2013-01-04 03:09:00,27.8,23.0,30.11,SSW,211,2.0,4.0,82,0.00,,,0.00,Wunderground v.1.15,2013-01-04 08:09:00,
2013-01-04 03:14:00,27.8,23.0,30.11,SSW,213,2.0,4.0,82,0.00,,,0.00,Wunderground v.1.15,2013-01-04 08:14:00,
2013-01-04 03:19:00,27.7,22.9,30.11,SSW,213,0.0,4.0,82,0.00,,,0.00,Wunderground v.1.15,2013-01-04 08:19:00,
2013-01-04 03:24:00,27.8,23.0,30.11,West,271,0.0,5.0,82,0.00,,,0.00,Wunderground v.1.15,2013-01-04 08:24:00,
2013-01-04 03:29:00,27.8,23.0,30.10,WSW,245,3.0,6.0,82,0.00,,,0.00,Wunderground v.1.15,2013-01-04 08:29:00,
2013-01-04 03:34:00,27.8,23.0,30.10,WSW,253,5.0,7.0,82,0.00,,,0.00,Wunderground v.1.15,2013-01-04 08:34:00,
2013-01-04 03:39:00,27.8,22.7,30.10,SW,215,3.0,11.0,81,0.00,,,0.00,Wunderground v.1.15,2013-01-04 08:39:00,
2013-01-04 03:44:00,27.8,22.7,30.10,WSW,246,2.0,7.0,81,0.00,,,0.00,Wunderground v.1.15,2013-01-04 08:44:00,
2013-01-04 03:49:00,27.8,22.7,30.10,SW,223,5.0,7.0,81,0.00,,,0.00,Wunderground v.1.15,2013-01-04 08:49:00,
2013-01-04 03:54:00,27.8,22.7,30.10,West,265,3.0,6.0,81,0.00,,,0.00,Wunderground v.1.15,2013-01-04 08:54:00,
2013-01-04 03:59:00,27.8,22.4,30.10,SW,232,5.0,6.0,80,0.00,,,0.00,Wunderground v.1.15,2013-01-04 08:59:00,
2013-01-04 04:04:00,27.8,22.7,30.10,NW,307,0.0,3.0,81,0.00,,,0.00,Wunderground v.1.15,2013-01-04 09:04:00,
2013-01-04 04:09:00,27.7,22.3,30.09,West,273,2.0,12.0,80,0.00,,,0.00,Wunderground v.1.15,2013-01-04 09:09:00,
2013-01-04 04:14:00,27.7,22.3,30.09,WSW,245,0.0,6.0,80,0.00,,,0.00,Wunderground v.1.15,2013-01-04 09:14:00,
2013-01-04 04:19:00,27.8,22.4,30.09,WSW,242,2.0,6.0,80,0.00,,,0.00,Wunderground v.1.15,2013-01-04 09:19:00,
2013-01-04 04:24:00,27.7,22.3,30.09,WSW,240,0.0,6.0,80,0.00,,,0.00,Wunderground v.1.15,2013-01-04 09:24:00,
2013-01-04 04:29:00,27.7,22.3,30.09,WSW,240,2.0,6.0,80,0.00,,,0.00,Wunderground v.1.15,2013-01-04 09:29:00,
2013-01-04 04:34:00,27.6,22.2,30.09,West,259,0.0,4.0,80,0.00,,,0.00,Wunderground v.1.15,2013-01-04 09:34:00,
2013-01-04 04:39:00,27.6,22.2,30.09,WSW,250,2.0,11.0,80,0.00,,,0.00,Wunderground v.1.15,2013-01-04 09:39:00,
2013-01-04 04:44:00,27.6,22.2,30.09,WSW,244,6.0,9.0,80,0.00,,,0.00,Wunderground v.1.15,2013-01-04 09:44:00,
2013-01-04 04:49:00,27.6,22.2,30.09,NW,322,2.0,9.0,80,0.00,,,0.00,Wunderground v.1.15,2013-01-04 09:49:00,
2013-01-04 04:54:00,27.5,22.1,30.09,WSW,238,4.0,5.0,80,0.00,,,0.00,Wunderground v.1.15,2013-01-04 09:54:00,
2013-01-04 04:59:00,27.4,22.0,30.09,WSW,254,5.0,14.0,80,0.00,,,0.00,Wunderground v.1.15,2013-01-04 09:59:00,
2013-01-04 05:04:00,27.4,22.0,30.09,WNW,300,4.0,11.0,80,0.00,,,0.00,Wunderground v.1.15,2013-01-04 10:04:00,
2013-01-04 05:09:00,27.3,21.9,30.09,WSW,244,2.0,11.0,80,0.00,,,0.00,Wunderground v.1.15,2013-01-04 10:09:00,
2013-01-04 05:14:00,27.2,21.8,30.09,WNW,287,4.0,9.0,80,0.00,,,0.00,Wunderground v.1.15,2013-01-04 10:14:00,
2013-01-04 05:19:00,27.1,21.7,30.09,SW,232,3.0,10.0,80,0.00,,,0.00,Wunderground v.1.15,2013-01-04 10:19:00,
2013-01-04 05:24:00,27.0,21.9,30.09,SW,233,0.0,7.0,81,0.00,,,0.00,Wunderground v.1.15,2013-01-04 10:24:00,
2013-01-04 05:29:00,26.9,21.8,30.09,West,259,2.0,8.0,81,0.00,,,0.00,Wunderground v.1.15,2013-01-04 10:29:00,
2013-01-04 05:34:00,26.8,21.8,30.09,SW,225,1.0,13.0,81,0.00,,,0.00,Wunderground v.1.15,2013-01-04 10:34:00,
2013-01-04 05:39:00,26.8,21.8,30.09,West,271,0.0,13.0,81,0.00,,,0.00,Wunderground v.1.15,2013-01-04 10:39:00,
2013-01-04 05:44:00,26.7,21.7,30.09,SW,219,0.0,7.0,81,0.00,,,0.00,Wunderground v.1.15,2013-01-04 10:44:00,
2013-01-04 05:49:00,26.7,21.7,30.09,SW,230,0.0,9.0,81,0.00,,,0.00,Wunderground v.1.15,2013-01-04 10:49:00,
2013-01-04 05:54:00,26.5,21.5,30.09,WSW,253,1.0,4.0,81,0.00,,,0.00,Wunderground v.1.15,2013-01-04 10:54:00,
2013-01-04 06:00:00,26.3,21.3,30.09,SSW,203,2.0,4.0,81,0.00,,,0.00,Wunderground v.1.15,2013-01-04 11:00:00,
2013-01-04 06:05:00,26.1,21.1,30.09,South,191,2.0,7.0,81,0.00,,,0.00,Wunderground v.1.15,2013-01-04 11:05:00,
2013-01-04 06:10:00,25.7,20.7,30.09,SW,230,4.0,7.0,81,0.00,,,0.00,Wunderground v.1.15,2013-01-04 11:10:00,
2013-01-04 06:15:00,25.4,20.4,30.09,SSW,211,1.0,11.0,81,0.00,,,0.00,Wunderground v.1.15,2013-01-04 11:15:00,
2013-01-04 06:20:00,25.0,20.0,30.09,West,275,2.0,11.0,81,0.00,,,0.00,Wunderground v.1.15,2013-01-04 11:20:00,
2013-01-04 06:25:00,24.7,19.7,30.08,WSW,237,2.0,6.0,81,0.00,,,0.00,Wunderground v.1.15,2013-01-04 11:25:00,
2013-01-04 06:30:00,24.6,19.6,30.09,SSW,211,2.0,7.0,81,0.00,,,0.00,Wunderground v.1.15,2013-01-04 11:30:00,
2013-01-04 06:35:00,24.3,19.3,30.09,SW,227,6.0,8.0,81,0.00,,,0.00,Wunderground v.1.15,2013-01-04 11:35:00,
2013-01-04 06:40:00,24.0,19.3,30.09,WSW,240,2.0,8.0,82,0.00,,,0.00,Wunderground v.1.15,2013-01-04 11:40:00,
2013-01-04 06:45:00,23.8,19.1,30.09,WSW,257,2.0,9.0,82,0.00,,,0.00,Wunderground v.1.15,2013-01-04 11:45:00,
2013-01-04 06:50:00,23.6,18.9,30.09,West,267,5.0,12.0,82,0.00,,,0.00,Wunderground v.1.15,2013-01-04 11:50:00,
2013-01-04 06:55:00,23.4,18.7,30.09,WSW,240,1.0,10.0,82,0.00,,,0.00,Wunderground v.1.15,2013-01-04 11:55:00,
2013-01-04 07:00:00,23.0,18.3,30.10,SW,232,7.0,7.0,82,0.00,,,0.00,Wunderground v.1.15,2013-01-04 12:00:00,
2013-01-04 07:05:00,22.7,18.3,30.09,West,265,4.0,7.0,83,0.00,,,0.00,Wunderground v.1.15,2013-01-04 12:05:00,
2013-01-04 07:10:00,22.5,18.1,30.09,WNW,284,4.0,4.0,83,0.00,,,0.00,Wunderground v.1.15,2013-01-04 12:10:00,
2013-01-04 07:15:00,22.4,18.0,30.10,WSW,246,4.0,7.0,83,0.00,,,0.00,Wunderground v.1.15,2013-01-04 12:15:00,
2013-01-04 07:20:00,22.4,18.0,30.10,SW,219,2.0,2.0,83,0.00,,,0.00,Wunderground v.1.15,2013-01-04 12:20:00,
2013-01-04 07:25:00,22.0,17.6,30.10,SSW,197,4.0,5.0,83,0.00,,,0.00,Wunderground v.1.15,2013-01-04 12:25:00,
2013-01-04 07:30:00,21.8,17.4,30.10,SSW,192,2.0,2.0,83,0.00,,,0.00,Wunderground v.1.15,2013-01-04 12:30:00,
2013-01-04 07:35:00,21.7,17.3,30.10,ESE,110,1.0,5.0,83,0.00,,,0.00,Wunderground v.1.15,2013-01-04 12:35:00,
2013-01-04 07:40:00,21.6,17.2,30.10,West,266,3.0,3.0,83,0.00,,,0.00,Wunderground v.1.15,2013-01-04 12:40:00,
2013-01-04 07:45:00,21.6,17.2,30.10,WSW,241,0.0,7.0,83,0.00,,,0.00,Wunderground v.1.15,2013-01-04 12:45:00,
2013-01-04 07:50:00,21.6,17.0,30.10,SW,232,1.0,9.0,82,0.00,,,0.00,Wunderground v.1.15,2013-01-04 12:50:00,
2013-01-04 07:55:00,21.4,16.8,30.10,WSW,254,2.0,9.0,82,0.00,,,0.00,Wunderground v.1.15,2013-01-04 12:55:00,
2013-01-04 08:00:00,21.3,16.7,30.10,WSW,258,6.0,10.0,82,0.00,,,0.00,Wunderground v.1.15,2013-01-04 13:00:00,
2013-01-04 08:05:00,21.2,16.6,30.11,WSW,243,4.0,10.0,82,0.00,,,0.00,Wunderground v.1.15,2013-01-04 13:05:00,
2013-01-04 08:10:00,21.2,16.3,30.11,SW,229,0.0,3.0,81,0.00,,,0.00,Wunderground v.1.15,2013-01-04 13:10:00,
2013-01-04 08:15:00,20.9,16.0,30.11,WNW,288,0.0,5.0,81,0.00,,,0.00,Wunderground v.1.15,2013-01-04 13:15:00,
2013-01-04 08:20:00,20.8,16.2,30.11,SW,232,1.0,2.0,82,0.00,,,0.00,Wunderground v.1.15,2013-01-04 13:20:00,
2013-01-04 08:25:00,20.8,16.2,30.11,WSW,250,2.0,5.0,82,0.00,,,0.00,Wunderground v.1.15,2013-01-04 13:25:00,
2013-01-04 08:30:00,20.9,16.0,30.10,WSW,246,4.0,11.0,81,0.00,,,0.00,Wunderground v.1.15,2013-01-04 13:30:00,
2013-01-04 08:35:00,21.1,16.2,30.11,SW,225,3.0,11.0,81,0.00,,,0.00,Wunderground v.1.15,2013-01-04 13:35:00,
2013-01-04 08:41:00,21.1,16.2,30.11,SW,215,2.0,4.0,81,0.00,,,0.00,Wunderground v.1.15,2013-01-04 13:41:00,
2013-01-04 08:46:00,21.1,16.2,30.11,WSW,248,2.0,6.0,81,0.00,,,0.00,Wunderground v.1.15,2013-01-04 13:46:00,
2013-01-04 08:51:00,21.1,16.2,30.10,SW,223,2.0,3.0,81,0.00,,,0.00,Wunderground v.1.15,2013-01-04 13:51:00,
2013-01-04 08:56:00,21.1,16.2,30.10,SSW,211,0.0,6.0,81,0.00,,,0.00,Wunderground v.1.15,2013-01-04 13:56:00,
2013-01-04 09:01:00,21.1,16.2,30.10,WSW,250,0.0,2.0,81,0.00,,,0.00,Wunderground v.1.15,2013-01-04 14:01:00,
2013-01-04 09:06:00,21.2,16.3,30.10,West,270,6.0,6.0,81,0.00,,,0.00,Wunderground v.1.15,2013-01-04 14:06:00,
2013-01-04 09:11:00,21.3,16.1,30.10,West,269,0.0,2.0,80,0.00,,,0.00,Wunderground v.1.15,2013-01-04 14:11:00,
2013-01-04 09:16:00,21.3,16.1,30.10,SW,229,4.0,10.0,80,0.00,,,0.00,Wunderground v.1.15,2013-01-04 14:16:00,
2013-01-04 09:21:00,21.4,16.2,30.11,SW,226,0.0,2.0,80,0.00,,,0.00,Wunderground v.1.15,2013-01-04 14:21:00,
2013-01-04 09:26:00,21.5,16.3,30.11,West,275,3.0,3.0,80,0.00,,,0.00,Wunderground v.1.15,2013-01-04 14:26:00,
2013-01-04 09:31:00,21.8,16.6,30.11,WSW,251,2.0,4.0,80,0.00,,,0.00,Wunderground v.1.15,2013-01-04 14:31:00,
2013-01-04 09:36:00,22.0,16.5,30.11,SW,225,3.0,9.0,79,0.00,,,0.00,Wunderground v.1.15,2013-01-04 14:36:00,
2013-01-04 09:41:00,22.2,16.4,30.11,WSW,245,3.0,12.0,78,0.00,,,0.00,Wunderground v.1.15,2013-01-04 14:41:00,
2013-01-04 09:46:00,22.5,16.7,30.10,WNW,284,3.0,12.0,78,0.00,,,0.00,Wunderground v.1.15,2013-01-04 14:46:00,
2013-01-04 09:51:00,22.9,16.8,30.11,West,261,2.0,5.0,77,0.00,,,0.00,Wunderground v.1.15,2013-01-04 14:51:00,
2013-01-04 09:56:00,23.2,17.1,30.11,West,271,2.0,7.0,77,0.00,,,0.00,Wunderground v.1.15,2013-01-04 14:56:00,
2013-01-04 10:01:00,23.3,16.9,30.11,WSW,248,3.0,6.0,76,0.00,,,0.00,Wunderground v.1.15,2013-01-04 15:01:00,
2013-01-04 10:06:00,23.4,16.9,30.11,SW,218,4.0,10.0,76,0.00,,,0.00,Wunderground v.1.15,2013-01-04 15:06:00,
2013-01-04 10:11:00,23.6,16.8,30.11,SW,223,4.0,7.0,75,0.00,,,0.00,Wunderground v.1.15,2013-01-04 15:11:00,
2013-01-04 10:16:00,23.9,17.4,30.11,WSW,244,2.0,9.0,76,0.00,,,0.00,Wunderground v.1.15,2013-01-04 15:16:00,
2013-01-04 10:21:00,24.3,17.5,30.10,WSW,241,3.0,4.0,75,0.00,,,0.00,Wunderground v.1.15,2013-01-04 15:21:00,
2013-01-04 10:26:00,24.5,17.4,30.11,WSW,251,8.0,14.0,74,0.00,,,0.00,Wunderground v.1.15,2013-01-04 15:26:00,
2013-01-04 10:31:00,24.5,17.4,30.11,NW,304,4.0,4.0,74,0.00,,,0.00,Wunderground v.1.15,2013-01-04 15:31:00,
2013-01-04 10:36:00,24.6,17.5,30.11,West,263,2.0,13.0,74,0.00,,,0.00,Wunderground v.1.15,2013-01-04 15:36:00,
2013-01-04 10:41:00,24.9,17.8,30.11,West,265,0.0,4.0,74,0.00,,,0.00,Wunderground v.1.15,2013-01-04 15:41:00,
2013-01-04 10:46:00,25.2,17.8,30.11,SW,234,1.0,11.0,73,0.00,,,0.00,Wunderground v.1.15,2013-01-04 15:46:00,
2013-01-04 10:51:00,25.4,17.6,30.11,WSW,237,2.0,6.0,72,0.00,,,0.00,Wunderground v.1.15,2013-01-04 15:51:00,
2013-01-04 10:56:00,25.4,17.6,30.10,South,182,1.0,6.0,72,0.00,,,0.00,Wunderground v.1.15,2013-01-04 15:56:00,
2013-01-04 11:01:00,25.7,17.9,30.10,SW,227,4.0,4.0,72,0.00,,,0.00,Wunderground v.1.15,2013-01-04 16:01:00,
2013-01-04 11:06:00,25.6,17.2,30.09,WSW,240,3.0,12.0,70,0.00,,,0.00,Wunderground v.1.15,2013-01-04 16:06:00,
2013-01-04 11:11:00,25.6,17.8,30.10,WSW,241,3.0,3.0,72,0.00,,,0.00,Wunderground v.1.15,2013-01-04 16:11:00,
2013-01-04 11:16:00,25.2,17.1,30.10,SW,233,3.0,12.0,71,0.00,,,0.00,Wunderground v.1.15,2013-01-04 16:16:00,
2013-01-04 11:21:00,25.0,16.9,30.10,SW,214,4.0,7.0,71,0.00,,,0.00,Wunderground v.1.15,2013-01-04 16:21:00,
2013-01-04 11:26:00,24.8,17.1,30.10,WNW,298,6.0,14.0,72,0.00,,,0.00,Wunderground v.1.15,2013-01-04 16:26:00,
2013-01-04 11:31:00,25.0,17.2,30.09,WSW,253,3.0,7.0,72,0.00,,,0.00,Wunderground v.1.15,2013-01-04 16:31:00,
2013-01-04 11:36:00,25.2,17.4,30.09,WSW,246,2.0,7.0,72,0.00,,,0.00,Wunderground v.1.15,2013-01-04 16:36:00,
2013-01-04 11:41:00,26.0,18.2,30.09,WSW,256,1.0,6.0,72,0.00,,,0.00,Wunderground v.1.15,2013-01-04 16:41:00,
2013-01-04 11:46:00,26.3,18.5,30.08,SW,227,5.0,6.0,72,0.00,,,0.00,Wunderground v.1.15,2013-01-04 16:46:00,
2013-01-04 11:51:00,26.5,18.7,30.08,West,277,4.0,5.0,72,0.00,,,0.00,Wunderground v.1.15,2013-01-04 16:51:00,
2013-01-04 11:56:00,26.4,18.6,30.09,WSW,246,10.0,10.0,72,0.00,,,0.00,Wunderground v.1.15,2013-01-04 16:56:00,
2013-01-04 12:01:00,26.2,18.4,30.09,West,269,3.0,6.0,72,0.00,,,0.00,Wunderground v.1.15,2013-01-04 17:01:00,
2013-01-04 12:06:00,26.4,18.9,30.08,West,260,7.0,12.0,73,0.00,,,0.00,Wunderground v.1.15,2013-01-04 17:06:00,
2013-01-04 12:11:00,26.3,18.8,30.09,WSW,243,3.0,6.0,73,0.00,,,0.00,Wunderground v.1.15,2013-01-04 17:11:00,
2013-01-04 12:16:00,26.5,19.0,30.08,WSW,244,6.0,11.0,73,0.00,,,0.00,Wunderground v.1.15,2013-01-04 17:16:00,
2013-01-04 12:21:00,26.9,19.4,30.08,WSW,243,4.0,4.0,73,0.00,,,0.00,Wunderground v.1.15,2013-01-04 17:21:00,
2013-01-04 12:26:00,27.5,20.0,30.07,WSW,241,3.0,8.0,73,0.00,,,0.00,Wunderground v.1.15,2013-01-04 17:26:00,
2013-01-04 12:31:00,27.4,19.6,30.08,WSW,248,2.0,7.0,72,0.00,,,0.00,Wunderground v.1.15,2013-01-04 17:31:00,
2013-01-04 12:36:00,27.5,19.7,30.07,SSW,213,2.0,8.0,72,0.00,,,0.00,Wunderground v.1.15,2013-01-04 17:36:00,
2013-01-04 12:41:00,27.9,20.0,30.07,SW,217,3.0,3.0,72,0.00,,,0.00,Wunderground v.1.15,2013-01-04 17:41:00,
2013-01-04 12:46:00,28.0,20.1,30.06,WSW,244,7.0,10.0,72,0.00,,,0.00,Wunderground v.1.15,2013-01-04 17:46:00,
2013-01-04 12:51:00,28.2,20.3,30.06,SSW,198,1.0,5.0,72,0.00,,,0.00,Wunderground v.1.15,2013-01-04 17:51:00,
2013-01-04 12:56:00,28.7,20.8,30.05,West,259,0.0,6.0,72,0.00,,,0.00,Wunderground v.1.15,2013-01-04 17:56:00,
2013-01-04 13:02:00,29.0,20.4,30.06,SW,232,9.0,11.0,70,0.00,,,0.00,Wunderground v.1.15,2013-01-04 18:02:00,
2013-01-04 13:07:00,28.8,20.2,30.06,WSW,245,1.0,11.0,70,0.00,,,0.00,Wunderground v.1.15,2013-01-04 18:07:00,
2013-01-04 13:12:00,29.2,20.6,30.06,SW,219,2.0,11.0,70,0.00,,,0.00,Wunderground v.1.15,2013-01-04 18:12:00,
2013-01-04 13:17:00,29.4,20.8,30.05,West,269,8.0,11.0,70,0.00,,,0.00,Wunderground v.1.15,2013-01-04 18:17:00,
2013-01-04 13:22:00,29.4,20.8,30.05,West,265,3.0,7.0,70,0.00,,,0.00,Wunderground v.1.15,2013-01-04 18:22:00,
2013-01-04 13:27:00,29.5,20.9,30.05,SW,228,3.0,7.0,70,0.00,,,0.00,Wunderground v.1.15,2013-01-04 18:27:00,
2013-01-04 13:32:00,29.6,21.0,30.05,West,259,3.0,11.0,70,0.00,,,0.00,Wunderground v.1.15,2013-01-04 18:32:00,
2013-01-04 13:37:00,29.3,20.7,30.04,West,274,1.0,13.0,70,0.00,,,0.00,Wunderground v.1.15,2013-01-04 18:37:00,
2013-01-04 13:42:00,29.4,20.5,30.04,WSW,249,6.0,8.0,69,0.00,,,0.00,Wunderground v.1.15,2013-01-04 18:42:00,
2013-01-04 13:47:00,29.5,20.6,30.04,SW,230,2.0,8.0,69,0.00,,,0.00,Wunderground v.1.15,2013-01-04 18:47:00,
2013-01-04 13:52:00,29.7,20.4,30.04,WSW,256,0.0,5.0,68,0.00,,,0.00,Wunderground v.1.15,2013-01-04 18:52:00,
2013-01-04 13:57:00,30.0,21.1,30.04,SW,236,4.0,6.0,69,0.00,,,0.00,Wunderground v.1.15,2013-01-04 18:57:00,
2013-01-04 14:02:00,29.8,20.5,30.03,SW,230,7.0,9.0,68,0.00,,,0.00,Wunderground v.1.15,2013-01-04 19:02:00,
2013-01-04 14:07:00,29.9,20.6,30.03,WSW,247,3.0,9.0,68,0.00,,,0.00,Wunderground v.1.15,2013-01-04 19:07:00,
2013-01-04 14:12:00,30.6,20.9,30.03,SSW,199,0.0,6.0,67,0.00,,,0.00,Wunderground v.1.15,2013-01-04 19:12:00,
2013-01-04 14:17:00,30.7,20.7,30.03,WSW,253,6.0,12.0,66,0.00,,,0.00,Wunderground v.1.15,2013-01-04 19:17:00,
2013-01-04 14:22:00,30.7,20.3,30.03,SSW,205,6.0,7.0,65,0.00,,,0.00,Wunderground v.1.15,2013-01-04 19:22:00,
2013-01-04 14:27:00,30.9,20.5,30.03,West,276,2.0,7.0,65,0.00,,,0.00,Wunderground v.1.15,2013-01-04 19:27:00,
2013-01-04 14:32:00,31.2,20.4,30.03,SW,228,4.0,7.0,64,0.00,,,0.00,Wunderground v.1.15,2013-01-04 19:32:00,
2013-01-04 14:37:00,31.4,20.6,30.03,WSW,248,2.0,9.0,64,0.00,,,0.00,Wunderground v.1.15,2013-01-04 19:37:00,
2013-01-04 14:42:00,31.6,21.2,30.03,West,274,0.0,5.0,65,0.00,,,0.00,Wunderground v.1.15,2013-01-04 19:42:00,
2013-01-04 14:47:00,31.4,20.2,30.03,SW,232,3.0,10.0,63,0.00,,,0.00,Wunderground v.1.15,2013-01-04 19:47:00,
2013-01-04 14:52:00,30.7,19.6,30.03,WNW,296,6.0,8.0,63,0.00,,,0.00,Wunderground v.1.15,2013-01-04 19:52:00,
2013-01-04 14:57:00,30.7,20.3,30.03,West,259,6.0,11.0,65,0.00,,,0.00,Wunderground v.1.15,2013-01-04 19:57:00,
2013-01-04 15:02:00,30.9,20.5,30.03,SW,234,4.0,4.0,65,0.00,,,0.00,Wunderground v.1.15,2013-01-04 20:02:00,
2013-01-04 15:07:00,31.0,19.9,30.03,West,275,0.0,7.0,63,0.00,,,0.00,Wunderground v.1.15,2013-01-04 20:07:00,
2013-01-04 15:12:00,30.9,19.8,30.04,WSW,251,2.0,13.0,63,0.00,,,0.00,Wunderground v.1.15,2013-01-04 20:12:00,
2013-01-04 15:17:00,30.8,20.0,30.03,WSW,244,4.0,14.0,64,0.00,,,0.00,Wunderground v.1.15,2013-01-04 20:17:00,
2013-01-04 15:22:00,30.6,19.9,30.03,SW,216,3.0,9.0,64,0.00,,,0.00,Wunderground v.1.15,2013-01-04 20:22:00,
2013-01-04 15:27:00,30.3,19.9,30.04,WSW,258,5.0,9.0,65,0.00,,,0.00,Wunderground v.1.15,2013-01-04 20:27:00,
2013-01-04 15:32:00,29.7,19.4,30.04,WSW,250,1.0,7.0,65,0.00,,,0.00,Wunderground v.1.15,2013-01-04 20:32:00,
2013-01-04 15:37:00,29.5,19.5,30.04,West,273,2.0,12.0,66,0.00,,,0.00,Wunderground v.1.15,2013-01-04 20:37:00,
2013-01-04 15:42:00,29.4,19.8,30.04,South,175,4.0,11.0,67,0.00,,,0.00,Wunderground v.1.15,2013-01-04 20:42:00,
2013-01-04 15:47:00,29.4,19.4,30.05,WSW,239,0.0,11.0,66,0.00,,,0.00,Wunderground v.1.15,2013-01-04 20:47:00,
2013-01-04 15:52:00,29.3,19.3,30.05,WNW,300,12.0,12.0,66,0.00,,,0.00,Wunderground v.1.15,2013-01-04 20:52:00,
2013-01-04 15:57:00,28.9,19.0,30.05,SSW,213,3.0,12.0,66,0.00,,,0.00,Wunderground v.1.15,2013-01-04 20:57:00,
2013-01-04 16:02:00,28.5,18.9,30.05,WSW,242,2.0,10.0,67,0.00,,,0.00,Wunderground v.1.15,2013-01-04 21:02:00,
2013-01-04 16:08:00,28.2,18.6,30.05,WSW,250,5.0,11.0,67,0.00,,,0.00,Wunderground v.1.15,2013-01-04 21:08:00,
2013-01-04 16:13:00,28.2,19.0,30.05,SW,234,0.0,4.0,68,0.00,,,0.00,Wunderground v.1.15,2013-01-04 21:13:00,
2013-01-04 16:18:00,28.0,18.8,30.05,West,275,6.0,9.0,68,0.00,,,0.00,Wunderground v.1.15,2013-01-04 21:18:00,
2013-01-04 16:23:00,28.0,18.8,30.05,West,260,0.0,7.0,68,0.00,,,0.00,Wunderground v.1.15,2013-01-04 21:23:00,
2013-01-04 16:28:00,27.8,18.9,30.05,SW,234,3.0,9.0,69,0.00,,,0.00,Wunderground v.1.15,2013-01-04 21:28:00,
2013-01-04 16:33:00,27.6,18.8,30.05,WSW,252,5.0,9.0,69,0.00,,,0.00,Wunderground v.1.15,2013-01-04 21:33:00,
2013-01-04 16:38:00,27.6,18.8,30.06,West,261,3.0,15.0,69,0.00,,,0.00,Wunderground v.1.15,2013-01-04 21:38:00,
2013-01-04 16:43:00,27.4,18.9,30.06,WSW,240,0.0,6.0,70,0.00,,,0.00,Wunderground v.1.15,2013-01-04 21:43:00,
2013-01-04 16:48:00,27.2,18.7,30.06,SW,224,1.0,6.0,70,0.00,,,0.00,Wunderground v.1.15,2013-01-04 21:48:00,
2013-01-04 16:53:00,27.0,18.8,30.06,WSW,248,3.0,9.0,71,0.00,,,0.00,Wunderground v.1.15,2013-01-04 21:53:00,
2013-01-04 16:58:00,26.9,18.7,30.06,WSW,254,0.0,9.0,71,0.00,,,0.00,Wunderground v.1.15,2013-01-04 21:58:00,
2013-01-04 17:03:00,26.7,18.6,30.07,WSW,241,1.0,7.0,71,0.00,,,0.00,Wunderground v.1.15,2013-01-04 22:03:00,
2013-01-04 17:08:00,26.6,18.8,30.07,West,269,2.0,8.0,72,0.00,,,0.00,Wunderground v.1.15,2013-01-04 22:08:00,
2013-01-04 17:13:00,26.5,18.7,30.08,SW,221,3.0,10.0,72,0.00,,,0.00,Wunderground v.1.15,2013-01-04 22:13:00,
2013-01-04 17:18:00,26.3,18.5,30.08,West,271,0.0,10.0,72,0.00,,,0.00,Wunderground v.1.15,2013-01-04 22:18:00,
2013-01-04 17:23:00,26.1,18.6,30.08,West,262,3.0,7.0,73,0.00,,,0.00,Wunderground v.1.15,2013-01-04 22:23:00,
2013-01-04 17:28:00,26.0,18.5,30.08,South,179,1.0,7.0,73,0.00,,,0.00,Wunderground v.1.15,2013-01-04 22:28:00,
2013-01-04 17:33:00,26.0,18.5,30.08,West,279,2.0,5.0,73,0.00,,,0.00,Wunderground v.1.15,2013-01-04 22:33:00,
2013-01-04 17:38:00,25.9,18.4,30.08,West,271,3.0,6.0,73,0.00,,,0.00,Wunderground v.1.15,2013-01-04 22:38:00,
2013-01-04 17:43:00,25.7,18.6,30.09,WSW,254,3.0,5.0,74,0.00,,,0.00,Wunderground v.1.15,2013-01-04 22:43:00,
2013-01-04 17:48:00,25.6,18.5,30.09,SSW,193,0.0,6.0,74,0.00,,,0.00,Wunderground v.1.15,2013-01-04 22:48:00,
2013-01-04 17:53:00,25.3,18.2,30.09,SW,217,4.0,4.0,74,0.00,,,0.00,Wunderground v.1.15,2013-01-04 22:53:00,
2013-01-04 17:58:00,24.9,18.1,30.09,WSW,241,1.0,6.0,75,0.00,,,0.00,Wunderground v.1.15,2013-01-04 22:58:00,
2013-01-04 18:03:00,24.9,18.4,30.10,WSW,257,0.0,5.0,76,0.00,,,0.00,Wunderground v.1.15,2013-01-04 23:03:00,
2013-01-04 18:08:00,25.1,18.6,30.10,WSW,245,1.0,9.0,76,0.00,,,0.00,Wunderground v.1.15,2013-01-04 23:08:00,
2013-01-04 18:13:00,25.0,18.2,30.11,WSW,242,6.0,7.0,75,0.00,,,0.00,Wunderground v.1.15,2013-01-04 23:13:00,
2013-01-04 18:18:00,24.9,18.4,30.11,West,259,2.0,7.0,76,0.00,,,0.00,Wunderground v.1.15,2013-01-04 23:18:00,
2013-01-04 18:23:00,24.7,18.2,30.11,WSW,238,3.0,3.0,76,0.00,,,0.00,Wunderground v.1.15,2013-01-04 23:23:00,
2013-01-04 18:28:00,24.4,18.2,30.11,West,277,3.0,4.0,77,0.00,,,0.00,Wunderground v.1.15,2013-01-04 23:28:00,
2013-01-04 18:33:00,24.5,18.3,30.11,SW,235,2.0,7.0,77,0.00,,,0.00,Wunderground v.1.15,2013-01-04 23:33:00,
2013-01-04 18:38:00,24.6,18.4,30.11,SW,236,3.0,7.0,77,0.00,,,0.00,Wunderground v.1.15,2013-01-04 23:38:00,
2013-01-04 18:43:00,24.6,18.4,30.12,WSW,252,1.0,4.0,77,0.00,,,0.00,Wunderground v.1.15,2013-01-04 23:43:00,
2013-01-04 18:48:00,24.4,18.2,30.12,SW,223,0.0,5.0,77,0.00,,,0.00,Wunderground v.1.15,2013-01-04 23:48:00,
2013-01-04 18:53:00,24.3,18.4,30.12,WSW,248,2.0,6.0,78,0.00,,,0.00,Wunderground v.1.15,2013-01-04 23:53:00,
2013-01-04 18:58:00,24.6,18.7,30.12,SSW,211,1.0,9.0,78,0.00,,,0.00,Wunderground v.1.15,2013-01-04 23:58:00,
2013-01-04 19:03:00,24.7,18.8,30.13,WSW,253,2.0,3.0,78,0.00,,,0.00,Wunderground v.1.15,2013-01-05 00:03:00,
2013-01-04 19:08:00,24.5,18.6,30.13,WSW,247,2.0,5.0,78,0.00,,,0.00,Wunderground v.1.15,2013-01-05 00:08:00,
2013-01-04 19:13:00,24.5,18.9,30.13,WSW,253,0.0,6.0,79,0.00,,,0.00,Wunderground v.1.15,2013-01-05 00:13:00,
2013-01-04 19:18:00,24.7,19.1,30.13,WSW,242,3.0,11.0,79,0.00,,,0.00,Wunderground v.1.15,2013-01-05 00:18:00,
2013-01-04 19:23:00,24.7,19.1,30.13,West,260,1.0,5.0,79,0.00,,,0.00,Wunderground v.1.15,2013-01-05 00:23:00,
2013-01-04 19:28:00,24.6,19.0,30.13,WSW,245,7.0,7.0,79,0.00,,,0.00,Wunderground v.1.15,2013-01-05 00:28:00,
2013-01-04 19:33:00,24.7,19.1,30.13,WSW,246,2.0,5.0,79,0.00,,,0.00,Wunderground v.1.15,2013-01-05 00:33:00,
2013-01-04 19:38:00,24.8,19.5,30.13,WSW,237,2.0,5.0,80,0.00,,,0.00,Wunderground v.1.15,2013-01-05 00:38:00,
2013-01-04 19:43:00,24.5,18.9,30.13,WSW,239,0.0,6.0,79,0.00,,,0.00,Wunderground v.1.15,2013-01-05 00:43:00,
2013-01-04 19:49:00,24.6,19.3,30.13,West,265,4.0,7.0,80,0.00,,,0.00,Wunderground v.1.15,2013-01-05 00:49:00,
2013-01-04 19:54:00,24.7,19.4,30.14,WSW,252,1.0,4.0,80,0.00,,,0.00,Wunderground v.1.15,2013-01-05 00:54:00,
2013-01-04 19:58:00,24.6,19.3,30.14,SW,228,0.0,6.0,80,0.00,,,0.00,Wunderground v.1.15,2013-01-05 00:58:00,
2013-01-04 20:04:00,24.7,19.7,30.14,WSW,252,2.0,3.0,81,0.00,,,0.00,Wunderground v.1.15,2013-01-05 01:04:00,
2013-01-04 20:09:00,24.6,19.3,30.14,West,267,1.0,5.0,80,0.00,,,0.00,Wunderground v.1.15,2013-01-05 01:09:00,
2013-01-04 20:14:00,24.5,19.5,30.14,WSW,248,4.0,6.0,81,0.00,,,0.00,Wunderground v.1.15,2013-01-05 01:14:00,
2013-01-04 20:19:00,24.6,19.6,30.14,WSW,253,0.0,6.0,81,0.00,,,0.00,Wunderground v.1.15,2013-01-05 01:19:00,
2013-01-04 20:24:00,24.6,19.6,30.14,SW,229,0.0,4.0,81,0.00,,,0.00,Wunderground v.1.15,2013-01-05 01:24:00,
2013-01-04 20:29:00,24.7,19.7,30.14,WSW,255,1.0,8.0,81,0.00,,,0.00,Wunderground v.1.15,2013-01-05 01:29:00,
2013-01-04 20:34:00,24.7,19.7,30.14,West,271,5.0,5.0,81,0.00,,,0.00,Wunderground v.1.15,2013-01-05 01:34:00,
2013-01-04 20:39:00,24.9,20.2,30.14,WSW,244,0.0,13.0,82,0.00,,,0.00,Wunderground v.1.15,2013-01-05 01:39:00,
2013-01-04 20:44:00,24.5,19.5,30.14,WSW,246,0.0,2.0,81,0.00,,,0.00,Wunderground v.1.15,2013-01-05 01:44:00,
2013-01-04 20:49:00,24.4,19.7,30.14,WSW,251,2.0,5.0,82,0.00,,,0.00,Wunderground v.1.15,2013-01-05 01:49:00,
2013-01-04 20:54:00,24.3,19.6,30.14,West,259,0.0,6.0,82,0.00,,,0.00,Wunderground v.1.15,2013-01-05 01:54:00,
2013-01-04 20:59:00,24.2,19.8,30.14,WSW,250,3.0,6.0,83,0.00,,,0.00,Wunderground v.1.15,2013-01-05 01:59:00,
2013-01-04 21:04:00,24.0,19.3,30.14,WSW,252,1.0,4.0,82,0.00,,,0.00,Wunderground v.1.15,2013-01-05 02:04:00,
2013-01-04 21:09:00,24.0,19.6,30.14,WSW,252,0.0,4.0,83,0.00,,,0.00,Wunderground v.1.15,2013-01-05 02:09:00,
2013-01-04 21:14:00,24.1,19.7,30.14,WSW,250,0.0,4.0,83,0.00,,,0.00,Wunderground v.1.15,2013-01-05 02:14:00,
2013-01-04 21:19:00,24.1,19.7,30.14,WSW,250,0.0,4.0,83,0.00,,,0.00,Wunderground v.1.15,2013-01-05 02:19:00,
2013-01-04 21:24:00,23.9,19.5,30.15,WSW,250,3.0,3.0,83,0.00,,,0.00,Wunderground v.1.15,2013-01-05 02:24:00,
2013-01-04 21:29:00,24.0,19.9,30.15,WSW,242,0.0,5.0,84,0.00,,,0.00,Wunderground v.1.15,2013-01-05 02:29:00,
2013-01-04 21:34:00,24.0,19.6,30.15,SW,236,0.0,4.0,83,0.00,,,0.00,Wunderground v.1.15,2013-01-05 02:34:00,
2013-01-04 21:39:00,23.8,19.7,30.15,SW,236,0.0,4.0,84,0.00,,,0.00,Wunderground v.1.15,2013-01-05 02:39:00,
2013-01-04 21:44:00,23.6,19.5,30.15,SW,236,0.0,4.0,84,0.00,,,0.00,Wunderground v.1.15,2013-01-05 02:44:00,
2013-01-04 21:49:00,23.5,19.4,30.15,SW,236,1.0,4.0,84,0.00,,,0.00,Wunderground v.1.15,2013-01-05 02:49:00,
2013-01-04 21:54:00,23.3,19.2,30.16,SW,236,2.0,4.0,84,0.00,,,0.00,Wunderground v.1.15,2013-01-05 02:54:00,
2013-01-04 21:59:00,23.1,19.3,30.15,SW,236,1.0,4.0,85,0.00,,,0.00,Wunderground v.1.15,2013-01-05 02:59:00,
2013-01-04 22:04:00,23.1,19.3,30.15,West,260,1.0,4.0,85,0.00,,,0.00,Wunderground v.1.15,2013-01-05 03:04:00,
2013-01-04 22:09:00,23.5,19.9,30.15,WSW,244,2.0,5.0,86,0.00,,,0.00,Wunderground v.1.15,2013-01-05 03:09:00,
2013-01-04 22:14:00,24.0,20.4,30.15,WSW,245,2.0,3.0,86,0.00,,,0.00,Wunderground v.1.15,2013-01-05 03:14:00,
2013-01-04 22:19:00,23.9,20.0,30.15,West,269,3.0,6.0,85,0.00,,,0.00,Wunderground v.1.15,2013-01-05 03:19:00,
2013-01-04 22:24:00,24.0,20.1,30.15,WSW,257,3.0,5.0,85,0.00,,,0.00,Wunderground v.1.15,2013-01-05 03:24:00,
2013-01-04 22:29:00,24.2,20.3,30.15,WSW,246,0.0,5.0,85,0.00,,,0.00,Wunderground v.1.15,2013-01-05 03:29:00,
2013-01-04 22:34:00,24.1,20.2,30.15,WSW,251,1.0,5.0,85,0.00,,,0.00,Wunderground v.1.15,2013-01-05 03:34:00,
2013-01-04 22:39:00,23.8,19.7,30.16,WSW,251,2.0,5.0,84,0.00,,,0.00,Wunderground v.1.15,2013-01-05 03:39:00,
2013-01-04 22:44:00,23.6,19.8,30.16,SW,218,0.0,6.0,85,0.00,,,0.00,Wunderground v.1.15,2013-01-05 03:44:00,
2013-01-04 22:49:00,23.9,20.3,30.16,WSW,241,2.0,7.0,86,0.00,,,0.00,Wunderground v.1.15,2013-01-05 03:49:00,
2013-01-04 22:54:00,24.3,20.7,30.16,WSW,253,2.0,4.0,86,0.00,,,0.00,Wunderground v.1.15,2013-01-05 03:54:00,
2013-01-04 22:59:00,24.5,20.6,30.16,WSW,246,2.0,4.0,85,0.00,,,0.00,Wunderground v.1.15,2013-01-05 03:59:00,
2013-01-04 23:04:00,24.3,20.2,30.16,WSW,246,4.0,4.0,84,0.00,,,0.00,Wunderground v.1.15,2013-01-05 04:04:00,
2013-01-04 23:09:00,24.0,19.9,30.16,WSW,246,3.0,4.0,84,0.00,,,0.00,Wunderground v.1.15,2013-01-05 04:09:00,
2013-01-04 23:14:00,23.8,19.9,30.17,WSW,240,6.0,6.0,85,0.00,,,0.00,Wunderground v.1.15,2013-01-05 04:14:00,
2013-01-04 23:19:00,24.0,20.1,30.17,SW,236,0.0,6.0,85,0.00,,,0.00,Wunderground v.1.15,2013-01-05 04:19:00,
2013-01-04 23:25:00,24.3,20.7,30.17,WSW,246,0.0,6.0,86,0.00,,,0.00,Wunderground v.1.15,2013-01-05 04:25:00,
2013-01-04 23:30:00,24.0,20.1,30.17,WSW,246,1.0,6.0,85,0.00,,,0.00,Wunderground v.1.15,2013-01-05 04:30:00,
2013-01-04 23:35:00,23.6,19.8,30.17,WSW,246,2.0,3.0,85,0.00,,,0.00,Wunderground v.1.15,2013-01-05 04:35:00,
2013-01-04 23:40:00,23.7,20.1,30.17,West,272,2.0,7.0,86,0.00,,,0.00,Wunderground v.1.15,2013-01-05 04:40:00,
2013-01-04 23:45:00,24.1,20.5,30.17,West,259,1.0,6.0,86,0.00,,,0.00,Wunderground v.1.15,2013-01-05 04:45:00,
2013-01-04 23:50:00,24.1,20.2,30.17,West,259,1.0,6.0,85,0.00,,,0.00,Wunderground v.1.15,2013-01-05 04:50:00,
2013-01-04 23:55:00,23.8,19.9,30.17,West,259,2.0,2.0,85,0.00,,,0.00,Wunderground v.1.15,2013-01-05 04:55:00,